Weather History for Rio Gallegos, Argentina

Change the Weather History Date:

Wednesday, November 21, 2012

  Actual Average Record
Temperature  
Mean Temperature 46 °F -  
Max Temperature 55 °F 64 °F 77 °F (1998)
Min Temperature 36 °F 43 °F 31 °F (2013)
Degree Days  
Heating Degree Days 20    
Moisture  
Dew Point 31 °F    
Average Humidity 56    
Maximum Humidity 76    
Minimum Humidity 28    
Precipitation  
Precipitation 0.00 in 0.03 in - ()
Sea Level Pressure  
Sea Level Pressure 29.33 in    
Wind  
Wind Speed 20 mph ()    
Max Wind Speed 41 mph    
Max Gust Speed 60 mph    
Visibility 7.2 miles    
Events Rain    
Averages and records for this station are not official NWS values.
T = Trace of Precipitation, MM = Missing Value Source: Averaged Metar Reports

Daily Weather History Graph

Daily Weather History Graph

Search for Another Location

Airport:

Trip Planner

Search our weather history database for the weather conditions in past years. The results will help you decide how hot, cold, wet, or windy it might be!

Date:

Astronomy

Nov. 21, 2012 Rise Set
Actual Time 5:26 AM ART 9:20 PM ART
Civil Twilight 4:44 AM ART 10:03 PM ART
Nautical Twilight 3:44 AM ART 11:03 PM ART
Astronomical Twilight 1:57 AM ART 12:59 AM ART
Moon 2:14 PM ART (11/21) 2:22 AM ART (11/21)
Length of Visible Light 17h 19m
Length of Day
15h 53m
First Quarter, 60% of the Moon is Illuminated
Nov 21
First Quarter
Nov 28
Full
Dec 6
Last Quarter
Dec 13
New
Dec 20
First Quarter

Hourly Weather History & Observations

Time (ART) Temp. Windchill Dew Point Humidity Pressure Visibility Wind Dir Wind Speed Gust Speed Precip Events Conditions
12:00 AM 44.6 °F 38.8 °F 37.4 °F 76% 29.24 in 6.2 mi WSW 11.5 mph - N/A   Partly Cloudy
1:00 AM 44.6 °F 39.2 °F 37.4 °F 76% 29.24 in 6.2 mi West 10.4 mph - N/A   Partly Cloudy
2:00 AM 44.6 °F 40.2 °F 37.4 °F 76% 29.21 in 6.2 mi West 8.1 mph - N/A   Scattered Clouds
3:00 AM 44 °F - 31 °F 49% 29.24 in 19 mi West 10.4 mph - -   Scattered Clouds
3:00 AM 42.8 °F 37.0 °F 32.0 °F 66% 29.24 in 6.2 mi West 10.4 mph - N/A   Partly Cloudy
4:00 AM 37.4 °F 30.8 °F 30.2 °F 75% 29.24 in - NW 9.2 mph - N/A   Clear
5:00 AM 41.0 °F 33.9 °F 24.8 °F 53% 29.24 in 6.2 mi NW 12.7 mph - N/A   Partly Cloudy
6:00 AM 41.0 °F 31.6 °F 28.4 °F 61% 29.24 in 6.2 mi West 20.7 mph - N/A   Partly Cloudy
7:00 AM 42.8 °F 32.5 °F 30.2 °F 61% 29.24 in 6.2 mi West 28.8 mph 43.7 mph N/A   Partly Cloudy
8:00 AM 44.6 °F 34.7 °F 32.0 °F 61% 29.24 in 6.2 mi West 29.9 mph 43.7 mph N/A   Scattered Clouds
9:00 AM 47 °F - 33 °F 46% 29.27 in 19 mi West 33.4 mph - -   Partly Cloudy
9:00 AM 46.4 °F 36.7 °F 32.0 °F 57% 29.27 in 6.2 mi West 33.4 mph 47.2 mph N/A   Scattered Clouds
10:00 AM 50.0 °F - 35.6 °F 58% 29.27 in 6.2 mi West 36.8 mph 49.5 mph N/A   Scattered Clouds
11:00 AM 51.8 °F - 39.2 °F 62% 29.27 in 6.2 mi West 41.4 mph 59.8 mph N/A   Scattered Clouds
12:00 PM 51.8 °F - 30.2 °F 44% 29.30 in 6.2 mi WSW 38.0 mph 59.8 mph N/A   Partly Cloudy
1:00 PM 55.4 °F - 32.0 °F 41% 29.30 in 6.2 mi WSW 38.0 mph 55.2 mph N/A   Partly Cloudy
2:00 PM 51.8 °F - 35.6 °F 54% 29.33 in 6.2 mi WSW 41.4 mph 57.5 mph N/A   Partly Cloudy
3:00 PM 53.6 °F - 39.2 °F 58% 29.36 in 6.2 mi WSW 35.7 mph 51.8 mph N/A Rain Rain Showers
3:15 PM 53.6 °F - 39.2 °F 58% 29.36 in 6.2 mi West 39.1 mph 43.7 mph N/A   Mostly Cloudy
4:00 PM 51.8 °F - 23.0 °F 33% 29.36 in 6.2 mi West 29.9 mph 41.4 mph N/A   Scattered Clouds
5:00 PM 50.0 °F - 42.8 °F 76% 29.39 in 6.2 mi West 32.2 mph 41.4 mph N/A   Partly Cloudy
6:00 PM 51.8 °F - 19.4 °F 28% 29.42 in 6.2 mi West 34.5 mph 39.1 mph N/A   Scattered Clouds
7:00 PM 46.4 °F 37.7 °F 26.6 °F 46% 29.47 in 6.2 mi West 26.5 mph 39.1 mph N/A   Scattered Clouds
8:00 PM 44.6 °F 35.1 °F 21.2 °F 39% 29.50 in 6.2 mi West 27.6 mph 32.2 mph N/A   Partly Cloudy
9:00 PM 42.8 °F 34.0 °F 21.2 °F 42% 29.50 in 6.2 mi SW 20.7 mph - N/A   Partly Cloudy
10:00 PM 41.0 °F 30.5 °F 23.0 °F 49% 29.53 in 6.2 mi West 26.5 mph - N/A   Partly Cloudy
11:00 PM 39.2 °F 29.3 °F 28.4 °F 65% 29.53 in 6.2 mi West 20.7 mph - N/A   Partly Cloudy